TimeAKDT,TemperatureF,Dew PointF,Humidity,Sea Level PressureIn,VisibilityMPH,Wind Direction,Wind SpeedMPH,Gust SpeedMPH,PrecipitationIn,Events,Conditions,WindDirDegrees,DateUTC
12:16 AM,24.8,10.4,54,29.48,10.0,Calm,Calm,-,N/A,,Mostly Cloudy,0,2013-04-06 08:16:00
12:36 AM,24.8,10.4,54,29.48,10.0,Calm,Calm,-,N/A,,Scattered Clouds,0,2013-04-06 08:36:00
12:56 AM,23.0,10.4,59,29.48,10.0,Calm,Calm,-,N/A,,Mostly Cloudy,0,2013-04-06 08:56:00
1:16 AM,21.2,10.4,63,29.47,10.0,Calm,Calm,-,N/A,,Overcast,0,2013-04-06 09:16:00
1:36 AM,21.2,10.4,63,29.47,10.0,Calm,Calm,-,N/A,,Overcast,0,2013-04-06 09:36:00
1:56 AM,21.2,10.4,63,29.47,10.0,Calm,Calm,-,N/A,,Overcast,0,2013-04-06 09:56:00
2:16 AM,21.2,10.4,63,29.47,10.0,Calm,Calm,-,N/A,,Overcast,0,2013-04-06 10:16:00
2:36 AM,21.2,10.4,63,29.47,10.0,Calm,Calm,-,N/A,,Overcast,0,2013-04-06 10:36:00
2:56 AM,21.2,10.4,63,29.47,10.0,Calm,Calm,-,N/A,,Overcast,0,2013-04-06 10:56:00
3:16 AM,21.2,10.4,63,29.47,10.0,Calm,Calm,-,N/A,,Scattered Clouds,0,2013-04-06 11:16:00
3:36 AM,21.2,10.4,63,29.46,10.0,Calm,Calm,-,N/A,,Clear,0,2013-04-06 11:36:00
3:56 AM,21.2,10.4,63,29.46,10.0,Calm,Calm,-,N/A,,Mostly Cloudy,0,2013-04-06 11:56:00
4:16 AM,21.2,8.6,58,29.46,10.0,Calm,Calm,-,N/A,,Overcast,0,2013-04-06 12:16:00
4:36 AM,21.2,8.6,58,29.45,10.0,Calm,Calm,-,N/A,,Overcast,0,2013-04-06 12:36:00
4:56 AM,21.2,10.4,63,29.45,10.0,Calm,Calm,-,N/A,,Overcast,0,2013-04-06 12:56:00
5:16 AM,21.2,10.4,63,29.45,10.0,Calm,Calm,-,N/A,,Overcast,0,2013-04-06 13:16:00
5:36 AM,21.2,10.4,63,29.44,10.0,NE,4.6,-,N/A,,Overcast,40,2013-04-06 13:36:00
5:56 AM,21.2,8.6,58,29.44,10.0,ENE,3.5,-,N/A,,Overcast,60,2013-04-06 13:56:00
6:16 AM,21.2,10.4,63,29.43,10.0,Calm,Calm,-,N/A,,Overcast,0,2013-04-06 14:16:00
6:36 AM,21.2,10.4,63,29.43,10.0,NE,3.5,-,N/A,,Overcast,40,2013-04-06 14:36:00
6:56 AM,21.2,8.6,58,29.43,10.0,NNE,3.5,-,N/A,,Overcast,20,2013-04-06 14:56:00
7:16 AM,21.2,8.6,58,29.43,10.0,NNE,3.5,-,N/A,,Overcast,20,2013-04-06 15:16:00
7:36 AM,21.2,8.6,58,29.43,10.0,NNE,3.5,-,N/A,,Mostly Cloudy,20,2013-04-06 15:36:00
7:56 AM,21.2,8.6,58,29.44,10.0,North,3.5,-,N/A,,Overcast,360,2013-04-06 15:56:00
8:16 AM,21.2,8.6,58,29.43,10.0,NNE,3.5,-,N/A,,Overcast,30,2013-04-06 16:16:00
8:36 AM,21.2,8.6,58,29.44,10.0,NNE,4.6,-,N/A,,Overcast,30,2013-04-06 16:36:00
8:56 AM,21.2,8.6,58,29.44,10.0,NNE,5.8,-,N/A,,Overcast,30,2013-04-06 16:56:00
9:16 AM,21.2,8.6,58,29.44,10.0,NE,4.6,-,N/A,,Mostly Cloudy,50,2013-04-06 17:16:00
9:36 AM,21.2,10.4,63,29.44,10.0,NE,5.8,-,N/A,,Scattered Clouds,40,2013-04-06 17:36:00
9:56 AM,21.2,10.4,63,29.44,10.0,NE,5.8,-,N/A,,Overcast,40,2013-04-06 17:56:00
10:16 AM,21.2,10.4,63,29.44,10.0,NNE,4.6,-,N/A,,Overcast,30,2013-04-06 18:16:00
10:36 AM,21.2,12.2,68,29.45,10.0,NE,6.9,-,N/A,,Overcast,50,2013-04-06 18:36:00
10:56 AM,23.0,14.0,68,29.44,10.0,NE,5.8,-,N/A,,Overcast,40,2013-04-06 18:56:00
11:16 AM,24.8,15.8,69,29.45,10.0,NE,5.8,-,N/A,,Overcast,40,2013-04-06 19:16:00
11:36 AM,24.8,15.8,69,29.45,10.0,NE,3.5,-,N/A,,Overcast,40,2013-04-06 19:36:00
11:56 AM,24.8,15.8,69,29.45,10.0,NNE,3.5,-,N/A,,Overcast,30,2013-04-06 19:56:00
12:16 PM,26.6,15.8,64,29.45,10.0,Calm,Calm,-,N/A,,Overcast,0,2013-04-06 20:16:00
12:36 PM,26.6,15.8,64,29.45,10.0,NNE,4.6,-,N/A,,Overcast,30,2013-04-06 20:36:00
12:56 PM,28.4,15.8,59,29.45,10.0,Calm,Calm,-,N/A,,Overcast,0,2013-04-06 20:56:00
1:16 PM,28.4,15.8,59,29.45,10.0,Calm,Calm,-,N/A,,Overcast,0,2013-04-06 21:16:00
1:36 PM,28.4,15.8,59,29.45,10.0,Calm,Calm,-,N/A,,Overcast,0,2013-04-06 21:36:00
1:56 PM,28.4,17.6,64,29.45,10.0,WSW,3.5,-,N/A,,Overcast,240,2013-04-06 21:56:00
2:16 PM,30.2,17.6,60,29.45,10.0,WSW,4.6,-,N/A,,Overcast,250,2013-04-06 22:16:00
2:36 PM,30.2,19.4,64,29.45,10.0,NW,4.6,-,N/A,,Overcast,320,2013-04-06 22:36:00
2:56 PM,30.2,17.6,60,29.45,10.0,NW,3.5,-,N/A,,Overcast,320,2013-04-06 22:56:00
3:16 PM,30.2,15.8,55,29.44,10.0,West,4.6,-,N/A,,Overcast,260,2013-04-06 23:16:00
3:36 PM,30.2,14.0,51,29.44,10.0,Calm,Calm,-,N/A,,Overcast,0,2013-04-06 23:36:00
3:56 PM,32.0,15.8,51,29.44,10.0,NNW,5.8,-,N/A,,Overcast,330,2013-04-06 23:56:00
4:16 PM,32.0,15.8,51,29.44,10.0,West,9.2,-,N/A,,Overcast,270,2013-04-07 00:16:00
4:36 PM,32.0,15.8,51,29.44,10.0,West,9.2,-,N/A,,Scattered Clouds,270,2013-04-07 00:36:00
4:56 PM,30.2,14.0,51,29.44,10.0,West,11.5,-,N/A,,Clear,280,2013-04-07 00:56:00
5:16 PM,30.2,14.0,51,29.45,10.0,West,12.7,17.3,N/A,,Clear,270,2013-04-07 01:16:00
5:36 PM,30.2,14.0,51,29.45,10.0,West,12.7,-,N/A,,Clear,270,2013-04-07 01:36:00
5:56 PM,30.2,14.0,51,29.45,10.0,West,12.7,-,N/A,,Clear,270,2013-04-07 01:56:00
6:16 PM,28.4,12.2,51,29.46,10.0,West,12.7,-,N/A,,Clear,270,2013-04-07 02:16:00
6:36 PM,28.4,12.2,51,29.46,10.0,West,12.7,-,N/A,,Partly Cloudy,270,2013-04-07 02:36:00
6:56 PM,28.4,12.2,51,29.46,10.0,West,12.7,-,N/A,,Scattered Clouds,270,2013-04-07 02:56:00
7:16 PM,28.4,12.2,51,29.46,10.0,West,11.5,-,N/A,,Clear,280,2013-04-07 03:16:00
7:36 PM,28.4,12.2,51,29.47,10.0,West,13.8,-,N/A,,Clear,270,2013-04-07 03:36:00
7:56 PM,26.6,10.4,51,29.47,10.0,West,11.5,-,N/A,,Clear,270,2013-04-07 03:56:00
8:16 PM,26.6,10.4,51,29.47,10.0,West,10.4,-,N/A,,Clear,270,2013-04-07 04:16:00
8:36 PM,26.6,10.4,51,29.47,10.0,West,8.1,-,N/A,,Clear,270,2013-04-07 04:36:00
8:56 PM,26.6,10.4,51,29.48,10.0,West,6.9,-,N/A,,Clear,260,2013-04-07 04:56:00
9:16 PM,24.8,10.4,54,29.48,10.0,West,4.6,-,N/A,,Clear,260,2013-04-07 05:16:00
9:36 PM,24.8,10.4,54,29.49,10.0,SW,3.5,-,N/A,,Clear,230,2013-04-07 05:36:00
10:16 PM,21.2,10.4,63,29.49,10.0,Calm,Calm,-,N/A,,Overcast,0,2013-04-07 06:16:00
10:36 PM,21.2,10.4,63,29.50,10.0,SSE,3.5,-,N/A,,Overcast,160,2013-04-07 06:36:00
10:56 PM,21.2,12.2,68,29.50,10.0,South,3.5,-,N/A,,Overcast,170,2013-04-07 06:56:00
11:16 PM,23.0,12.2,63,29.50,10.0,South,5.8,-,N/A,,Scattered Clouds,190,2013-04-07 07:16:00
11:36 PM,24.8,12.2,59,29.50,10.0,South,6.9,-,N/A,,Clear,180,2013-04-07 07:36:00
11:56 PM,24.8,10.4,54,29.51,10.0,South,8.1,-,N/A,,Clear,190,2013-04-07 07:56:00